Terminal Aerodrome Forecast
Issued by NWS Columbia, SC

Home | Current Version | Previous Version | Text Only | Print | Product List | Glossary On
Versions: 1 2 3 4 5 6 7 8 9 10 11 12 13 14 15 16 17 18 19 20 21 22 23 24 25 26 27 28 29 30 31 32 33 34 35 36 37 38 39 40 41 42 43 44 45 46 47 48 49 50
000
FTUS42 KCAE 280154 AAA
TAFAGS
TAF AMD
KAGS 280154Z 2802/2824 10006KT P6SM -SHRA BKN012 OVC100
     FM280700 VRB03KT 1 1/2SM +SHRA OVC008
     FM281500 11005KT P6SM VCSH BKN008
     FM281700 12008KT P6SM VCSH OVC015
     FM282100 13006KT P6SM VCSH OVC035=

USA.gov is the U.S. government's official web portal to all federal, state and local government web resources and services.